Regional Weather Roundup
Issued by NWS

Home | Current Version | Previous Version | Graphics & Text | Print | Product List | Glossary Off
Versions: 1 2 3 4 5 6 7 8 9 10 11 12 13 14 15 16 17 18 19 20 21 22 23 24 25 26 27 28 29 30 31 32 33 34 35 36 37 38 39 40 41 42 43 44 45 46 47 48 49 50

973
ASUS43 KTOP 242108
RWRKS

WEATHER ROUNDUP FOR KANSAS
NATIONAL WEATHER SERVICE GOODLAND KS
400 PM CDT WED MAY 24 2017

NOTE:  "FAIR" INDICATES FEW OR NO CLOUDS BELOW 12,000 FEET WITH NO
SIGNIFICANT WEATHER AND/OR OBSTRUCTIONS TO VISIBILITY.

KSZ001>006-013>018-027>032-041>047-242200-
NORTHWEST KANSAS

CITY           SKY/WX    TMP DP  RH WIND       PRES   REMARKS
GOODLAND       SUNNY     73  45  36 S15       29.67F
HAYS           SUNNY     66  42  41 CALM      29.73
HILL CITY      SUNNY     68  37  32 VRB5      29.72F
RUSSELL        SUNNY     66  43  43 W6        29.72F
$$

KSZ061>065-074>080-084>089-242200-
SOUTHWEST KANSAS

CITY           SKY/WX    TMP DP  RH WIND       PRES   REMARKS
DODGE CITY     SUNNY     70  40  33 SW6       29.73F
ELKHART          N/A     78  42  27 W2          N/A
GARDEN CITY    SUNNY     73  41  31 S10G21    29.71F
GREAT BEND     SUNNY     65  44  46 N5        29.74F
LIBERAL        SUNNY     74  47  38 S7        29.72F
PRATT          SUNNY     62  40  43 SW3       29.75F
$$

KSZ066>073-081>083-090>101-242200-
SOUTHEAST KANSAS

CITY           SKY/WX    TMP DP  RH WIND       PRES   REMARKS
CHANUTE        MOSUNNY   69  45  41 NW14G24   29.70F
COFFEYVILLE    PTSUNNY   68  50  52 NW14      29.72F
HUTCHINSON     PTSUNNY   66  43  43 NW7       29.75F
MEDICINE LODGE   N/A     70  42  36 NW6G16    29.74F
NEWTON         PTSUNNY   64  45  49 W8        29.75F
PARSONS        PTSUNNY   66  46  48 NW13      29.72F
WICHITA INTL   PTSUNNY   65  43  44 NW5       29.75F
WICHITA JABRA  PTSUNNY   66  44  45 NW9       29.74F
WICHITA MCCONL PTSUNNY   64  42  45 NW7       29.75F
WINFIELD       MOSUNNY   67  45  45 NW10G17   29.76F
$$

KSZ007>012-019>026-033>040-048>060-102>105-242200-
NORTHEAST KANSAS

CITY           SKY/WX    TMP DP  RH WIND       PRES   REMARKS
CONCORDIA      MOSUNNY   64  46  52 NW3       29.73F
EMPORIA        PTSUNNY   65  45  48 NW7       29.71F
LAWRENCE       CLOUDY    65  49  56 N9        29.69S
MANHATTAN      PTSUNNY   69  46  43 W7        29.71F
MARYSVILLE     CLOUDY    66  46  48 NW3       29.71F
OLATHE IND     CLOUDY    63  48  58 N13       29.69F
OLATHE EXE     CLOUDY    63  49  60 NW12      29.68F
SALINA         MOSUNNY   67  43  41 MISG      29.74F
TOPEKA BILLARD PTSUNNY   66  49  54 NW9       29.69F
TOPEKA FORBES  CLOUDY    66  47  50 NW12      29.70S
$$




USA.gov is the U.S. government's official web portal to all federal, state and local government web resources and services.